EW2435 Weather Reports


Display with metric or nautical units.
time (UTC)temp
F
wind
direction
speed
MPH
gust
MPH
rain 1hr
in
rain 24hr
in
rain mn
in
humidity
%
barometer
mb
20260506001328 75 200 0.0 0.0 0.00 0.00 0.00 48 1016.9
20260506000825 75 200 0.0 0.0 0.00 0.00 0.00 48 1016.8
20260506000324 75 200 0.0 0.0 0.00 0.00 0.00 47 1016.9
20260505235827 76 200 0.0 0.0 0.00 0.00 0.00 49 1017.0
20260505235319 76 200 0.0 0.0 0.00 0.00 0.00 47 1017.0
20260505234817 76 200 0.0 0.0 0.00 0.00 0.00 46 1016.9
20260505234317 76 200 0.0 0.0 0.00 0.00 0.00 45 1016.9
20260505233830 77 200 0.0 0.0 0.00 0.00 0.00 45 1017.0
20260505232814 78 200 0.0 0.0 0.00 0.00 0.00 44 1016.8
20260505232314 78 200 0.0 0.0 0.00 0.00 0.00 43 1016.6
20260505231814 78 200 0.0 0.0 0.00 0.00 0.00 42 1016.5
20260505231315 78 200 0.0 0.0 0.00 0.00 0.00 41 1016.5
20260505230813 78 200 0.0 0.0 0.00 0.00 0.00 41 1016.6
20260505230307 79 200 0.0 1.0 0.00 0.00 0.00 41 1016.5
20260505225801 79 200 0.0 2.0 0.00 0.00 0.00 42 1016.6
20260505225521 79 157 0.0 2.0 0.00 0.00 0.00 42 1016.6
20260505224749 79 161 0.0 4.0 0.00 0.00 0.00 41 1016.6
20260505224737 79 161 0.0 4.0 0.00 0.00 0.00 42 1016.5
20260505223742 79 150 0.0 3.0 0.00 0.00 0.00 43 1016.5
20260505223230 79 111 0.0 3.0 0.00 0.00 0.00 41 1016.4
20260505223004 79 111 0.0 1.0 0.00 0.00 0.00 42 1016.3
20260505222228 79 124 0.0 2.0 0.00 0.00 0.00 42 1016.3
20260505221728 79 175 0.0 2.0 0.00 0.00 0.00 44 1016.4
20260505221221 79 67 0.0 1.0 0.00 0.00 0.00 44 1016.3
20260505221207 79 67 0.0 2.0 0.00 0.00 0.00 43 1016.1
20260505220211 79 69 0.0 2.0 0.00 0.00 0.00 44 1016.3
20260505215712 80 107 0.0 4.0 0.00 0.00 0.00 43 1016.5
20260505215209 80 126 1.0 4.0 0.00 0.00 0.00 44 1016.5
20260505214710 80 14 0.0 4.0 0.00 0.00 0.00 43 1016.4
20260505214210 80 175 0.0 4.0 0.00 0.00 0.00 42 1016.5
20260505213709 80 165 0.0 4.0 0.00 0.00 0.00 43 1016.6
20260505213209 80 184 0.0 0.0 0.00 0.00 0.00 43 1016.6
20260505212707 80 184 0.0 3.0 0.00 0.00 0.00 41 1016.7
20260505212210 80 184 0.0 5.0 0.00 0.00 0.00 41 1016.8
20260505211657 80 174 1.0 5.0 0.00 0.00 0.00 40 1016.6
20260505211156 80 26 0.0 4.0 0.00 0.00 0.00 41 1016.5
20260505210657 80 101 0.0 4.0 0.00 0.00 0.00 41 1016.5
20260505210423 81 129 0.0 2.0 0.00 0.00 0.00 40 1016.7
20260505205650 81 148 0.0 6.0 0.00 0.00 0.00 40 1016.9
20260505205149 81 83 0.0 6.0 0.00 0.00 0.00 40 1017.0
20260505204649 81 64 1.0 6.0 0.00 0.00 0.00 41 1017.1
20260505204149 81 63 0.0 5.0 0.00 0.00 0.00 39 1017.1
20260505203649 81 138 0.0 4.0 0.00 0.00 0.00 40 1017.2
20260505203147 81 138 0.0 4.0 0.00 0.00 0.00 42 1017.1
20260505202646 81 194 0.0 2.0 0.00 0.00 0.00 39 1017.2
20260505202141 81 115 0.0 3.0 0.00 0.00 0.00 42 1017.1
20260505201902 81 115 0.0 4.0 0.00 0.00 0.00 41 1017.3
20260505201140 80 87 0.0 4.0 0.00 0.00 0.00 42 1017.4
20260505200859 80 134 0.0 5.0 0.00 0.00 0.00 41 1017.4
20260505200138 80 222 1.0 9.0 0.00 0.00 0.00 40 1017.7
20260505195638 81 124 0.0 9.0 0.00 0.00 0.00 40 1017.5
20260505195137 81 176 0.0 3.0 0.00 0.00 0.00 41 1017.5
20260505194627 81 176 0.0 3.0 0.00 0.00 0.00 39 1017.7
20260505194129 82 181 0.0 2.0 0.00 0.00 0.00 41 1017.8
20260505193854 80 180 0.0 3.0 0.00 0.00 0.00 43 1017.7
20260505193126 80 146 0.0 3.0 0.00 0.00 0.00 42 1017.7
20260505192615 80 116 0.0 2.0 0.00 0.00 0.00 44 1017.8
20260505192116 80 133 0.0 4.0 0.00 0.00 0.00 41 1017.8
20260505191614 80 95 0.0 4.0 0.00 0.00 0.00 43 1017.9
20260505191109 80 148 0.0 4.0 0.00 0.00 0.00 41 1018.1
20260505190610 79 77 0.0 5.0 0.00 0.00 0.00 43 1018.1
20260505190107 79 174 0.0 9.0 0.00 0.00 0.00 43 1018.2
20260505185606 79 351 1.0 9.0 0.00 0.00 0.00 43 1018.2
20260505185106 78 109 0.0 2.0 0.00 0.00 0.00 43 1018.1
20260505184606 78 150 0.0 2.0 0.00 0.00 0.00 42 1018.3
20260505184327 78 86 0.0 2.0 0.00 0.00 0.00 41 1018.5
20260505183604 79 129 0.0 4.0 0.00 0.00 0.00 41 1018.5
20260505183105 79 95 0.0 4.0 0.00 0.00 0.00 42 1018.8
20260505182607 80 104 0.0 3.0 0.00 0.00 0.00 41 1019.0
20260505182103 79 76 0.0 2.0 0.00 0.00 0.00 41 1018.9
20260505181603 79 134 0.0 3.0 0.00 0.00 0.00 42 1019.1
20260505181104 79 155 0.0 3.0 0.00 0.00 0.00 42 1019.1
20260505180602 79 212 0.0 9.0 0.00 0.00 0.00 43 1019.1
20260505180107 79 134 1.0 9.0 0.00 0.00 0.00 42 1019.2
20260505175556 79 122 0.0 4.0 0.00 0.00 0.00 42 1019.3
20260505175055 79 128 0.0 3.0 0.00 0.00 0.00 45 1019.3
20260505174555 79 176 0.0 6.0 0.00 0.00 0.00 46 1019.4
20260505174053 78 104 1.0 6.0 0.00 0.00 0.00 45 1019.3
20260505173551 79 95 0.0 3.0 0.00 0.00 0.00 45 1019.3
20260505173043 78 162 0.0 5.0 0.00 0.00 0.00 45 1019.5
20260505172543 78 111 0.0 6.0 0.00 0.00 0.00 45 1019.5
20260505172312 78 333 0.0 7.0 0.00 0.00 0.00 43 1019.4
20260505171544 78 128 0.0 7.0 0.00 0.00 0.00 45 1019.4
20260505171043 78 146 1.0 5.0 0.00 0.00 0.00 42 1019.4
20260505170541 78 92 0.0 6.0 0.00 0.00 0.00 44 1019.4
20260505170045 78 121 0.0 6.0 0.00 0.00 0.00 45 1019.3
20260505165806 78 169 1.0 4.0 0.00 0.00 0.00 44 1019.4
20260505165035 78 84 0.0 6.0 0.00 0.00 0.00 44 1019.4
20260505164533 78 122 0.0 6.0 0.00 0.00 0.00 48 1019.4
20260505164035 78 146 0.0 2.0 0.00 0.00 0.00 46 1019.4
20260505163532 77 149 0.0 3.0 0.00 0.00 0.00 45 1019.5
20260505163255 77 175 0.0 7.0 0.00 0.00 0.00 50 1019.6
20260505162531 77 141 0.0 7.0 0.00 0.00 0.00 47 1019.7
20260505162032 77 146 1.0 4.0 0.00 0.00 0.00 48 1019.7
20260505161534 78 138 0.0 2.0 0.00 0.00 0.00 48 1019.8
20260505161253 77 109 0.0 2.0 0.00 0.00 0.00 49 1019.9
20260505160532 77 85 0.0 4.0 0.00 0.00 0.00 52 1019.9
20260505160257 77 144 0.0 4.0 0.00 0.00 0.00 51 1019.9
20260505153021 76 155 0.0 0.0 0.00 0.00 0.00 54 1019.9
20260505152529 76 155 0.0 0.0 0.00 0.00 0.00 53 1019.8
20260505152010 76 155 0.0 0.0 0.00 0.00 0.00 55 1020.0
20260505151508 75 155 0.0 0.0 0.00 0.00 0.00 58 1020.2
20260505150959 75 155 0.0 1.0 0.00 0.00 0.00 57 1020.2
20260505150459 75 155 0.0 1.0 0.00 0.00 0.00 57 1020.1
20260505140427 67 151 0.0 0.0 0.00 0.00 0.00 69 1019.6
20260505130118 54 151 0.0 0.0 0.00 0.00 0.00 94 1019.1
20260505124855 53 151 0.0 0.0 0.00 0.00 0.00 95 1019.0
20260505124355 53 151 0.0 0.0 0.00 0.00 0.00 96 1019.0
20260505123854 52 151 0.0 0.0 0.00 0.00 0.00 96 1019.0
20260505123351 52 151 0.0 0.0 0.00 0.00 0.00 97 1019.0
20260505123113 51 151 0.0 0.0 0.00 0.00 0.00 96 1019.0
20260505122349 51 151 0.0 0.0 0.00 0.00 0.00 97 1019.1
20260505121846 50 151 0.0 0.0 0.00 0.00 0.00 97 1019.0
20260505121349 50 151 0.0 0.0 0.00 0.00 0.00 96 1019.1
20260505120840 49 151 0.0 0.0 0.00 0.00 0.00 96 1019.1
20260505120353 49 151 0.0 0.0 0.00 0.00 0.00 97 1019.1
20260505115826 49 151 0.0 0.0 0.00 0.00 0.00 97 1019.0
20260505115321 48 151 0.0 0.0 0.00 0.00 0.00 96 1018.8
20260505115046 48 151 0.0 0.0 0.00 0.00 0.00 96 1018.7
20260505114309 47 151 0.0 0.0 0.00 0.00 0.00 96 1018.7
20260505114025 47 151 0.0 0.0 0.00 0.00 0.00 96 1018.7
20260505113307 47 151 0.0 0.0 0.00 0.00 0.00 96 1018.5
20260505112810 46 151 0.0 0.0 0.00 0.00 0.00 96 1018.5
20260505112304 46 151 0.0 0.0 0.00 0.00 0.00 96 1018.5
20260505112018 46 151 0.0 0.0 0.00 0.00 0.00 95 1018.3
20260505111739 46 151 0.0 0.0 0.00 0.00 0.00 95 1018.3
20260505110756 46 151 0.0 0.0 0.00 0.00 0.00 95 1018.4
20260505110308 46 151 0.0 0.0 0.00 0.00 0.00 95 1018.5
20260505101749 46 151 0.0 0.0 0.00 0.00 0.00 95 1018.4
20260505101253 46 151 0.0 0.0 0.00 0.00 0.00 94 1018.5
20260505100749 47 151 0.0 0.0 0.00 0.00 0.00 94 1018.5
20260505100249 47 151 0.0 0.0 0.00 0.00 0.00 95 1018.6
20260505095748 47 151 0.0 0.0 0.00 0.00 0.00 95 1018.4
20260505095249 47 151 0.0 0.0 0.00 0.00 0.00 95 1018.4
20260505094746 47 151 0.0 0.0 0.00 0.00 0.00 95 1018.3
20260505094248 47 151 0.0 0.0 0.00 0.00 0.00 95 1018.3
20260505093743 47 151 0.0 0.0 0.00 0.00 0.00 95 1018.3
20260505093241 47 151 0.0 0.0 0.00 0.00 0.00 94 1018.4
20260505092739 47 151 0.0 0.0 0.00 0.00 0.00 94 1018.4
20260505092241 47 151 0.0 0.0 0.00 0.00 0.00 94 1018.5
20260505091739 47 151 0.0 0.0 0.00 0.00 0.00 95 1018.5
20260505091457 48 151 0.0 0.0 0.00 0.00 0.00 95 1018.6
20260505090740 48 151 0.0 0.0 0.00 0.00 0.00 94 1018.6
20260505090238 48 151 0.0 0.0 0.00 0.00 0.00 94 1018.8
20260505085726 48 151 0.0 0.0 0.00 0.00 0.00 94 1018.8
20260505085229 48 151 0.0 0.0 0.00 0.00 0.00 94 1018.9
20260505084715 48 151 0.0 0.0 0.00 0.00 0.00 95 1018.9
20260505084216 48 151 0.0 0.0 0.00 0.00 0.00 94 1018.8
20260505083935 48 151 0.0 0.0 0.00 0.00 0.00 94 1018.7
20260505083204 48 151 0.0 0.0 0.00 0.00 0.00 94 1018.7
20260505082659 48 151 0.0 0.0 0.00 0.00 0.00 94 1018.7
20260505082158 48 151 0.0 0.0 0.00 0.00 0.00 94 1018.6
20260505081647 48 151 0.0 0.0 0.00 0.00 0.00 94 1018.6
20260505081150 48 151 0.0 0.0 0.00 0.00 0.00 94 1018.4
20260505080920 48 151 0.0 0.0 0.00 0.00 0.00 94 1018.4
20260505080148 49 151 0.0 0.0 0.00 0.00 0.00 94 1018.3
20260505075648 49 151 0.0 0.0 0.00 0.00 0.00 94 1018.2
20260505075145 49 151 0.0 0.0 0.00 0.00 0.00 94 1018.3
20260505074644 49 151 0.0 0.0 0.00 0.00 0.00 93 1018.3
20260505074148 49 151 0.0 0.0 0.00 0.00 0.00 94 1018.3
20260505073645 49 151 0.0 0.0 0.00 0.00 0.00 94 1018.4
20260505073146 49 151 0.0 0.0 0.00 0.00 0.00 93 1018.3
20260505072640 49 151 0.0 0.0 0.00 0.00 0.00 93 1018.3
20260505072137 49 151 0.0 0.0 0.00 0.00 0.00 93 1018.4
20260505071634 49 151 0.0 0.0 0.00 0.00 0.00 93 1018.4
20260505071126 49 151 0.0 0.0 0.00 0.00 0.00 93 1018.4
20260505070620 49 151 0.0 0.0 0.00 0.00 0.00 93 1018.4
20260505070116 50 151 0.0 0.0 0.00 0.00 0.00 92 1018.4
20260505065616 50 151 0.0 0.0 0.00 0.00 0.00 92 1018.4
20260505065116 50 151 0.0 0.0 0.00 0.00 0.00 92 1018.4
20260505064831 50 151 0.0 0.0 0.00 0.00 0.00 92 1018.3
20260505064113 50 151 0.0 0.0 0.00 0.00 0.00 92 1018.4
20260505063612 50 151 0.0 0.0 0.00 0.00 0.00 92 1018.4
20260505063112 50 151 0.0 0.0 0.00 0.00 0.00 92 1018.4
20260505062613 51 151 0.0 0.0 0.00 0.00 0.00 92 1018.4
20260505062110 51 151 0.0 0.0 0.00 0.00 0.00 92 1018.5
20260505061610 51 151 0.0 0.0 0.00 0.00 0.00 92 1018.5
20260505061104 51 151 0.0 0.0 0.00 0.00 0.00 92 1018.5
20260505060605 51 151 0.0 0.0 0.00 0.00 0.00 91 1018.4
20260505060104 51 151 0.0 0.0 0.00 0.00 0.00 91 1018.5
20260505055544 51 151 0.0 0.0 0.00 0.00 0.00 91 1018.5
20260505055044 51 151 0.0 0.0 0.00 0.00 0.00 91 1018.6
20260505054543 52 151 0.0 0.0 0.00 0.00 0.00 91 1018.6
20260505054038 52 151 0.0 0.0 0.00 0.00 0.00 91 1018.6
20260505053536 52 151 0.0 0.0 0.00 0.00 0.00 91 1018.7
20260505053253 52 151 0.0 0.0 0.00 0.00 0.00 91 1018.7
20260505052521 52 151 0.0 0.0 0.00 0.00 0.00 90 1018.6
20260505052012 52 151 0.0 0.0 0.00 0.00 0.00 90 1018.7
20260505051726 52 151 0.0 0.0 0.00 0.00 0.00 90 1018.7
20260505051003 53 151 0.0 0.0 0.00 0.00 0.00 90 1018.7
20260505050724 53 151 0.0 0.0 0.00 0.00 0.00 89 1018.8
20260505041432 54 151 0.0 0.0 0.00 0.00 0.00 87 1018.6
20260505040931 54 151 0.0 0.0 0.00 0.00 0.00 87 1018.6
20260505040913 55 151 0.0 0.0 0.00 0.00 0.00 87 1018.6
20260505035919 55 151 0.0 0.0 0.00 0.00 0.00 87 1018.6
20260505035419 55 151 0.0 0.0 0.00 0.00 0.00 87 1018.7
20260505035139 55 151 0.0 0.0 0.00 0.00 0.00 86 1018.7
20260505034636 55 151 0.0 0.0 0.00 0.00 0.00 86 1018.8
20260505033912 56 151 0.0 0.0 0.00 0.00 0.00 86 1018.8
20260505033414 56 151 0.0 0.0 0.00 0.00 0.00 86 1018.8
20260505033142 56 151 0.0 0.0 0.00 0.00 0.00 85 1018.9
20260505032413 56 151 0.0 0.0 0.00 0.00 0.00 85 1018.9
20260505031905 56 151 0.0 0.0 0.00 0.00 0.00 85 1018.9
20260505031406 57 151 0.0 0.0 0.00 0.00 0.00 84 1018.9
20260505030904 57 151 0.0 0.0 0.00 0.00 0.00 84 1018.9
20260505030615 57 151 0.0 0.0 0.00 0.00 0.00 83 1018.9
20260505025847 57 151 0.0 0.0 0.00 0.00 0.00 83 1018.9
20260505025350 57 151 0.0 0.0 0.00 0.00 0.00 83 1018.9
20260505024843 58 151 0.0 0.0 0.00 0.00 0.00 82 1018.9
20260505024342 58 151 0.0 0.0 0.00 0.00 0.00 82 1018.9
20260505024117 58 151 0.0 0.0 0.00 0.00 0.00 81 1018.7
20260505023344 58 151 0.0 0.0 0.00 0.00 0.00 81 1018.7
20260505023103 59 151 0.0 0.0 0.00 0.00 0.00 80 1018.7
20260505022321 59 151 0.0 0.0 0.00 0.00 0.00 80 1018.7
20260505021821 59 151 0.0 0.0 0.00 0.00 0.00 79 1018.7
20260505021321 60 151 0.0 0.0 0.00 0.00 0.00 79 1018.7
20260505020819 60 151 0.0 0.0 0.00 0.00 0.00 78 1018.7
20260505020314 60 151 0.0 0.0 0.00 0.00 0.00 78 1018.6
20260505020034 60 151 0.0 0.0 0.00 0.00 0.00 77 1018.5
20260505015310 61 151 0.0 0.0 0.00 0.00 0.00 76 1018.5
20260505014801 61 151 0.0 0.0 0.00 0.00 0.00 76 1018.6
20260505014252 61 151 0.0 0.0 0.00 0.00 0.00 75 1018.5
20260505013745 62 151 0.0 0.0 0.00 0.00 0.00 74 1018.4
20260505013459 62 151 0.0 0.0 0.00 0.00 0.00 73 1018.4
20260505012740 63 151 0.0 0.0 0.00 0.00 0.00 73 1018.2
20260505012241 63 151 0.0 0.0 0.00 0.00 0.00 71 1018.3
20260505011742 63 151 0.0 0.0 0.00 0.00 0.00 70 1018.3
20260505011233 64 151 0.0 0.0 0.00 0.00 0.00 70 1018.2
20260505010731 64 151 0.0 0.0 0.00 0.00 0.00 69 1018.1
20260505010442 65 151 0.0 0.0 0.00 0.00 0.00 68 1018.1
20260505005941 65 151 0.0 0.0 0.00 0.00 0.00 67 1018.0
20260505005419 66 151 0.0 0.0 0.00 0.00 0.00 66 1018.0
20260505004706 67 151 0.0 0.0 0.00 0.00 0.00 65 1017.9
20260505004202 67 151 0.0 0.0 0.00 0.00 0.00 64 1017.8
20260505003652 68 151 0.0 0.0 0.00 0.00 0.00 63 1017.8
20260505003142 68 151 0.0 0.0 0.00 0.00 0.00 62 1017.7
20260505002645 69 151 0.0 0.0 0.00 0.00 0.00 61 1017.8
20260505002351 69 151 0.0 0.0 0.00 0.00 0.00 61 1017.7